Погода Правая Хетта

Погода Правая Хетта : погода сейчас, прогноз погоды и архив. Всё, что Вы хотите узнать о погоде Правая Хетта!

Хотите узнать прогноз погоды Правая Хетта? Тогда Вам сюда: Погода Правая Хетта

Поиск расширенной информации на нашем сайте:

Другие новости

Новости СМИ2

Главная страница сайта

Новости сайта

03.07.2017

Напоминаем, что на нашем специализированном сайте Метеоцентр.Азия вы можете получить высокодетализированные автоматические прогнозы погоды по пунктам России, СНГ и мира в авиационном формате (включающие направление и скорость ветра, видимость, явления погоды, количество и форму облачности, нижнюю и верхнюю границу облачности).


Погода Правая Хетта - сегодня

Время (UTC), дата Ветер
(°,м/с) 
Видим.   Явления Облачность Т
(°С)
Тd
(°С)
f(%) Тe
(°С)
Pmin
(гПа)
dP
(гПа)
Po
(мм)
O2
(г/м3)
Тmin Tmax R s Состояние
почвы
15 22.05.18 300 (СЗ) 4-11{12}  1000 м  ливневой снег  10/10 300 м кучево-дожд. 
[Cb cap]
-0.2 -0.2 100 -3  1001.2  1.1  746  301    +5.1     
03 23.05.18 330 (СЗ) 5-10{12}  4000 м  слаб. ливневой снег  10/10 300 м кучево-дожд. 
[Cb cap]
-2.5 -3.7 91 -6  1012.4  2.6  754  307  -2.9       
09 23.05.18 320 (СЗ) 4{14}  20000 м    10/10 600 м 
[Sc]
-0.3 -5.5 68 -3  1015.7  0.9  757  306           
12 23.05.18 310 (СЗ) 4{14}  20000 м    4/4 600 м 
[Cu hum]
+0.6 -5.4 64 -2  1015.4  -0.2  757  305           
18 23.05.18 170 (Ю) 20000 м    10/3 300 м средняя 
[Sc|As op]
-0.8 -4.6 75 -3  1009.8  -3.5  752  305           
21 23.05.18 190 (Ю) 20000 м    10/3 300 м средняя 
[Sc|As op]
-0 -3.8 76 -2  1005.7  -4.1  749  302           
03 24.05.18 200 (Ю) 4{11}  2000 м  ливневой снег  10/10 300 м кучево-дожд. 
[Cb cap]
+0.9 +0.7 99 -1  997.4  -3.8  743  298  -1.8    65  равномерный
мокрый или
старый снег
100% 
09 24.05.18 250 (З) 5{10}  20000 м    10/10 600 м кучево-дожд. 
[Cb cap]
+4.3 -0.4 71 +2  996.2  0.4  742  295           
15 24.05.18 280 (З) 7-13{16}  10 км  слаб. снег{морось}  10/10 300 м 
[Sc]
-3.2 -5.5 84 -8  998  0.6  744  304    +5.2     
03 25.05.18 300 (СЗ) 6-13{14}  2000 м  снег  10/10 300 м 
[Ns]
-4.9 -6.7 87 -9  1002.7  2.4  747  307  -5.6    63  равномерный
мокрый или
старый снег
100% 
12 25.05.18 300 (СЗ) 5-11{14}  4000 м    10/10 600 м 
-3.3 -6.3 80 -7  1011.1  2.8  753  308           
15 25.05.18 300 (СЗ) 5-10{12}  2000 м  ливневой снег  10/8 300 м кучево-дожд., средняя 
[Cb cap|Ac As]
-4.8 -6.3 89 -9  1012.6  1.4  755  310    -2.7     
03 26.05.18 300 (СЗ) 4{10}  4000 м  слаб. снег  10/6 600 м средняя 
[Sc|As op]
-4.5 -7 83 -8  1015.6  0.3  757  311  -6.9    0.5  63  равномерный
мокрый или
старый снег
100% 
09 26.05.18 310 (СЗ) 20000 м  в посл. час ливневой снег  10/10 600 м кучево-дожд. 
[Cb cap]
-2 -6.7 70 -5  1016.9  0.6  758  308           
12 26.05.18 270 (З) 20000 м  {ливн. осадки}  10/8 600 м средняя, верхняя 
[Cu Sc|Ac cuf|Cs]
-2.4 -7.4 68 -4  1016.8  0.6  758  309           
15 26.05.18 170 (Ю) 20000 м    9/0 средняя 
[Ac As]
-2.9 -7.5 71 -2  1015.1  -1.6  756  309    -1.1  0.2     
18 26.05.18 200 (Ю) 20000 м    10/0 средняя 
[Ac und]
-3.2 -6.4 79 -4  1012.5  -2.6  754  308           
21 26.05.18 220 (ЮЗ) 20000 м    10/0 средняя 
[Ac und]
-2.1 -6 75 -4  1009.2  -3.2  752  306           
00 27.05.18 210 (ЮЗ) 10 км  слаб. снег  10/0 средняя 
[Ac As]
-0.7 -2.8 86 -3  1005.9  -3.3  750  303           
03 27.05.18 210 (ЮЗ) 20000 м  {снег}  10/0 средняя, верхняя 
[Ac As|Cs]
+2.8 -2.2 70 1002.5  -3.3  747  298  -3.7      61  равномерный
мокрый или
старый снег
100% 
15 27.05.18 260 (З) 20000 м  в посл. час ливневой дождь  8/5 600 м средняя, верхняя 
[Cu Sc|Ac cuf|Ci sp]
+2.3 +1.4 94 +1  997.6  -0.7  743  297    +5.1     
18 27.05.18 230 (ЮЗ) 20000 м  {ливн. осадки}  9/6 600 м средняя, верхняя 
[Cu Sc|Ac trans|Ci fib]
+1.5 +1.2 98 +1  997.8  0.2  744  298           
21 27.05.18 210 (ЮЗ) 20000 м    6/6 600 м 
[Sc]
-0.7 -0.7 100 997.6  -0.2  743  300           
00 28.05.18 170 (Ю) 20000 м    8/8 600 м 
[Sc]
+1.7 +0.7 93 +2  997.9  0.3  744  298           
03 28.05.18 160 (Ю) 20000 м    9/0 средняя 
[Ac und]
+2.7 +0.6 86 +3  997.9  744  297  -0.8      59  равномерный
мокрый или
старый снег
100% 
Время (UTC), дата Ветер
(°,м/с) 
Видим.   Явления Облачность Т
(°С)
Тd
(°С)
f(%) Тe
(°С)
Pmin
(гПа)
dP
(гПа)
Po
(мм)
O2
(г/м3)
Тmin Tmax R s Состояние
почвы

Для получения пояснительной информации подведите курсор к названию столбца.

ПОГОДА Правая Хетта - архив

Всё, что Вы хотите узнать о погоде Правая Хетта - удобно и подробно!

Выберите нужную дату (начиная с 1 января 2015* года) и нажмите кнопку "Найти".
Будут отображены архивные сводки погоды по пункту Правая Хетта, начиная с указанной даты.


Отображать данные в формате CSV (для использования в таблицах Excel)


Внимание! Наш архив погоды предназначен исключительно для личного некоммерческого использования в познавательных целях. Если Вам необходимы официальные справки о состоянии погоды (для производственных, юридических, коммерческих и т.п. целей), обращайтесь в органы Росгидромета.

*Примечание: данная дата относится к архиву по метеостанциям СССР (Россия, СНГ, Балтия).
Архив по метеостанциям Зарубежной Европы и Азии (кроме Китая) хранится 10 дней, по другим регионам земного шара (Китай, Африка, Америка, Австралия, Океания) - 1 день.

Правая Хетта - район местоположения метеостанции


Название, широта, долгота, высота метеостанции:
Правая Хетта 65.9°ш. 74.5°д. 54 м над ур. моря [Российская Федерация]

Дополнительная информация

В oтличие oт бoльшинства пoгoдных сайтoв мы публикуем пoдрoбную метеoинфoрмацию в детальнoм прoфессиoнальнoм фoрмате.

Характеристики температуры и влажнoсти вoздуха измеряются на высoте 2 м в тени вдали oт зданий и деревьев.
Скoрoсть ветра измеряется на высoте 10 м (на урoвне рoста челoвека скoрoсть ветра ниже в 1.5-2 раза). Если метеoстанция нахoдится в гoрoде или в лесу, тo скoрoсть ветра занижена на 2-4 м/с пo сравнению с oткрытым местoм. Скoрoсть ветра над акватoриями крупных рек и oзёр, а также на вершинах хoлмoв на 2-5 м/с выше, чем в oбычных услoвиях.
Атмoсфернoе давление в разных тoчках местнoсти мoжет значительнo oтличаться oт давления на метеoстанции, в зависимoсти oт услoвий рельефа (при пoдъёме на 10 м давление пoнижается примернo на 1 мм рт.ст.).